Location: Pandora
(40.9481°N, 83.9611°W)
Time: 01:48:04
(UTC-04:00)

ISS - Pass Details

Date: 30 September 2021
Orbit: 417 x 423 km, 51.6° (Epoch: 16 October)

Event Time Altitude Azimuth Distance (km) Brightness Sun altitude
Rises 21:15:24 0° 309° (NW) 2,365 1.2 -22.6°
Reaches altitude 10° 21:17:35 10° 317° (NW) 1,499 -0.2 -23.0°
Enters shadow 21:19:39 30° 342° (NNW) 786 -2.1 -23.4°
